Find Starlink 4439

NORAD ID: 53498 Int'l Des: 2022-099 Owner: SPXS Country: US Constellation: starlink operational
LEOCIRCULARRETROGRADESSO

現在のビュー

3D地球を読み込み中...

Starlink 4439について

説明を読み込み中...

次回通過

Passes for default location (London). Set your location on the main map for personalized predictions.

高度履歴

Loading altitude history...

軌道要素

1 53498U 22099AK 26150.14462594 -.00000851 00000-0 -54989-4 0 9995
2 53498 97.4266 270.9696 0000453 112.7302 247.3973 15.05645132208302
Epoch: May 30, 2026 • Age: 9 hours

現在のステータス

高度 552.7 km
速度 7.59 km/s
衛星直下点 -1.20°S, 19.42°E
打ち上げ日 Aug 12, 2022
運用期間 3.7 years
タイプ internet

技術仕様

分類 Payload
質量 300.00 kg
乾燥質量 275.00 kg
総質量 300.00 kg
長さ 0.20 m
直径 2.80 m
スパン 9.00 m
形状 Box + pan
製造者 SPXS
バスタイプ Starlink
フェーズステータス In Orbit
所有者/国 SPXS/US

Most Searched